LEMUR-2-SLICERS (46500 NORAD) Tracking and Keplerian Element Data

This shows tracking and keplerian element data for the satellite.

Feedback or suggestion? Click here.




ElementValue
Catalog46500
NameLEMUR-2-SLICERS
Epoch Orbit959
Epoch Day336.89068101
Epoch Year2020
RAAN269.68
Inclination97.6746
Eccentricity0.0013978
Argument of Perigee42.4764
Mean Anonmoly317.7543
Mean Motion15.02376995
Decay Rate3.695E-05
L11 46500U 20068Q 20336.89068101 .00003695 00000-0 28324-3 0 9993
L22 46500 97.6746 269.6800 0013978 42.4764 317.7543 15.02376995 9592

Live tracking and technical data element details for LEMUR-2-SLICERS (NORAD 46500). LEMUR-2-SLICERS can be tracked NOW for your location showing map with azimuth and elevation plus other details from your city location.

Track the satellite on the map from your city or location and see movement details for azimuth, elevation, latitude, longitude, range, height, and movement on the map or in text.







IsCatalogInMostPopularTable: catalog: 46500, numindb: 21
Update: records affected: 1



GetName: 46500 LEMUR-2-SLICERS

Hit Count: updated at: Thu, 03 Dec 2020 06:32:27 GMT